When you browse on this site, cookies collect data to enhance your experience and personalize the content and advertising you see.
Visit our Privacy Policy to learn more. By continuing to use the site, you agree to this use of cookies and data.
  • In Austria
  • List of Countries
  • For 7 days
  • Water Temperature
  • Weather Map
  • News
  • Weather Widgets
  • user-avatar
    Login

    Hourly Weather Tracy

    Today, 18 August, Sunday

    Time Temperature Precipitation Wind Pressure Humidity
    00:00 +18°C° 0 mm 2 mps 755 mmHg 70%
    01:00 +17°C° 0 mm 2 mps 754 mmHg 72%
    02:00 +18°C° 0 mm 1 mps 755 mmHg 74%
    03:00 +16°C° 0 mm 1 mps 755 mmHg 76%
    04:00 +15°C° 0 mm 1 mps 755 mmHg 78%
    05:00 +16°C° 0 mm 1 mps 756 mmHg 74%
    06:00 +18°C° 0 mm 1 mps 756 mmHg 70%
    07:00 +19°C° 0 mm 1 mps 756 mmHg 65%
    08:00 +23°C° 0 mm 1 mps 756 mmHg 54%
    09:00 +26°C° 0 mm 1 mps 757 mmHg 43%
    10:00 +29°C° 0 mm 1 mps 757 mmHg 32%
    11:00 +31°C° 0 mm 1 mps 756 mmHg 28%
    12:00 +34°C° 0 mm 2 mps 756 mmHg 24%
    13:00 +37°C° 0 mm 2 mps 756 mmHg 21%
    14:00 +36°C° 0 mm 3 mps 756 mmHg 23%
    15:00 +35°C° 0 mm 4 mps 755 mmHg 25%
    16:00 +35°C° 0 mm 5 mps 755 mmHg 27%
    17:00 +30°C° 0 mm 5 mps 755 mmHg 37%
    18:00 +27°C° 0 mm 4 mps 756 mmHg 47%
    19:00 +22°C° 0 mm 4 mps 756 mmHg 57%
    20:00 +21°C° 0 mm 4 mps 756 mmHg 65%
    21:00 +19°C° 0 mm 3 mps 757 mmHg 72%
    22:00 +17°C° 0 mm 3 mps 757 mmHg 80%
    23:00 +17°C° 0 mm 2 mps 757 mmHg 81%

    Tomorrow, 19 August, Monday

    Time Temperature Precipitation Wind Pressure Humidity
    00:00 +16°C° 0 mm 2 mps 757 mmHg 82%
    01:00 +16°C° 0 mm 2 mps 757 mmHg 84%
    02:00 +16°C° 0 mm 2 mps 758 mmHg 84%
    03:00 +15°C° 0 mm 2 mps 758 mmHg 84%
    04:00 +15°C° 0 mm 1 mps 758 mmHg 85%
    05:00 +16°C° 0 mm 1 mps 758 mmHg 80%
    06:00 +18°C° 0 mm 1 mps 758 mmHg 75%
    07:00 +19°C° 0 mm 1 mps 758 mmHg 70%
    08:00 +22°C° 0 mm 1 mps 758 mmHg 59%
    09:00 +25°C° 0 mm 1 mps 759 mmHg 48%
    10:00 +28°C° 0 mm 1 mps 759 mmHg 38%
    11:00 +30°C° 0 mm 2 mps 758 mmHg 33%
    12:00 +32°C° 0 mm 2 mps 758 mmHg 28%
    13:00 +36°C° 0 mm 2 mps 758 mmHg 23%
    14:00 +35°C° 0 mm 3 mps 758 mmHg 25%
    15:00 +35°C° 0 mm 4 mps 757 mmHg 26%
    16:00 +34°C° 0 mm 4 mps 757 mmHg 27%
    17:00 +30°C° 0 mm 4 mps 757 mmHg 35%
    18:00 +27°C° 0 mm 4 mps 757 mmHg 43%
    19:00 +23°C° 0 mm 4 mps 758 mmHg 51%
    20:00 +22°C° 0 mm 3 mps 758 mmHg 57%
    21:00 +20°C° 0 mm 3 mps 759 mmHg 63%
    22:00 +19°C° 0 mm 2 mps 759 mmHg 68%
    23:00 +18°C° 0 mm 2 mps 759 mmHg 70%

    Day after tomorrow, 20 August, Tuesday

    Time Temperature Precipitation Wind Pressure Humidity
    00:00 +18°C° 0 mm 2 mps 759 mmHg 72%
    01:00 +17°C° 0 mm 2 mps 759 mmHg 74%
    02:00 +17°C° 0 mm 2 mps 759 mmHg 76%
    03:00 +16°C° 0 mm 2 mps 759 mmHg 79%
    04:00 +16°C° 0 mm 2 mps 759 mmHg 81%
    05:00 +17°C° 0 mm 2 mps 759 mmHg 76%
    06:00 +19°C° 0 mm 1 mps 759 mmHg 71%
    07:00 +20°C° 0 mm 1 mps 760 mmHg 67%
    08:00 +23°C° 0 mm 2 mps 760 mmHg 56%
    09:00 +26°C° 0 mm 2 mps 760 mmHg 46%
    10:00 +29°C° 0 mm 3 mps 760 mmHg 35%
    11:00 +31°C° 0 mm 3 mps 759 mmHg 31%
    12:00 +33°C° 0 mm 3 mps 759 mmHg 28%
    13:00 +35°C° 0 mm 4 mps 759 mmHg 24%
    14:00 +35°C° 0 mm 4 mps 758 mmHg 25%
    15:00 +35°C° 0 mm 5 mps 758 mmHg 25%
    16:00 +34°C° 0 mm 5 mps 758 mmHg 25%
    17:00 +30°C° 0 mm 5 mps 758 mmHg 34%
    18:00 +27°C° 0 mm 4 mps 758 mmHg 43%
    19:00 +22°C° 0 mm 4 mps 758 mmHg 51%
    20:00 +21°C° 0 mm 4 mps 759 mmHg 56%
    21:00 +20°C° 0 mm 3 mps 759 mmHg 61%
    22:00 +18°C° 0 mm 3 mps 759 mmHg 66%
    23:00 +18°C° 0 mm 2 mps 759 mmHg 67%

    21 August, Wednesday

    Time Temperature Precipitation Wind Pressure Humidity
    00:00 +17°C° 0 mm 2 mps 759 mmHg 68%
    01:00 +17°C° 0 mm 2 mps 759 mmHg 68%
    02:00 +18°C° 0 mm 1 mps 759 mmHg 69%
    03:00 +16°C° 0 mm 1 mps 759 mmHg 70%
    04:00 +16°C° 0 mm 1 mps 759 mmHg 71%
    05:00 +18°C° 0 mm 1 mps 759 mmHg 66%
    06:00 +20°C° 0 mm 1 mps 759 mmHg 61%
    07:00 +21°C° 0 mm 1 mps 759 mmHg 56%
    08:00 +24°C° 0 mm 2 mps 759 mmHg 47%
    09:00 +28°C° 0 mm 2 mps 759 mmHg 37%
    10:00 +31°C° 0 mm 3 mps 759 mmHg 28%
    11:00 +34°C° 0 mm 3 mps 758 mmHg 23%
    12:00 +37°C° 0 mm 3 mps 758 mmHg 19%
    13:00 +39°C° 0 mm 3 mps 757 mmHg 14%
    14:00 +40°C° 0 mm 4 mps 757 mmHg 14%
    15:00 +41°C° 0 mm 4 mps 756 mmHg 14%
    16:00 +41°C° 0 mm 5 mps 756 mmHg 14%
    17:00 +36°C° 0 mm 4 mps 756 mmHg 21%
    18:00 +33°C° 0 mm 4 mps 756 mmHg 28%
    19:00 +28°C° 0 mm 4 mps 756 mmHg 34%
    20:00 +26°C° 0 mm 3 mps 756 mmHg 37%
    21:00 +25°C° 0 mm 3 mps 757 mmHg 40%
    22:00 +24°C° 0 mm 2 mps 757 mmHg 43%
    23:00 +23°C° 0 mm 2 mps 756 mmHg 46%

    22 August, Thursday

    Time Temperature Precipitation Wind Pressure Humidity
    00:00 +22°C° 0 mm 1 mps 756 mmHg 50%
    01:00 +21°C° 0 mm 1 mps 756 mmHg 54%
    02:00 +21°C° 0 mm 1 mps 756 mmHg 56%
    03:00 +20°C° 0 mm 1 mps 756 mmHg 58%
    04:00 +20°C° 0 mm 1 mps 756 mmHg 60%
    05:00 +22°C° 0 mm 1 mps 756 mmHg 54%
    06:00 +23°C° 0 mm 1 mps 756 mmHg 48%
    07:00 +25°C° 0 mm 1 mps 756 mmHg 43%
    08:00 +28°C° 0 mm 1 mps 756 mmHg 36%
    09:00 +31°C° 0 mm 2 mps 756 mmHg 28%
    10:00 +36°C° 0 mm 3 mps 756 mmHg 21%
    11:00 +38°C° 0 mm 3 mps 756 mmHg 19%
    12:00 +40°C° 0 mm 3 mps 755 mmHg 16%
    13:00 +43°C° 0 mm 3 mps 755 mmHg 13%
    14:00 +44°C° 0 mm 3 mps 755 mmHg 13%
    15:00 +44°C° 0 mm 4 mps 754 mmHg 12%
    16:00 +44°C° 0 mm 4 mps 754 mmHg 12%
    17:00 +40°C° 0 mm 4 mps 754 mmHg 18%
    18:00 +35°C° 0 mm 4 mps 754 mmHg 24%
    19:00 +30°C° 0 mm 4 mps 755 mmHg 30%
    20:00 +29°C° 0 mm 3 mps 755 mmHg 35%
    21:00 +27°C° 0 mm 3 mps 755 mmHg 39%
    22:00 +26°C° 0 mm 3 mps 756 mmHg 43%
    23:00 +25°C° 0 mm 2 mps 756 mmHg 47%

    23 August, Friday

    Time Temperature Precipitation Wind Pressure Humidity
    00:00 +24°C° 0 mm 2 mps 756 mmHg 52%
    01:00 +22°C° 0 mm 1 mps 756 mmHg 56%
    02:00 +22°C° 0 mm 1 mps 756 mmHg 59%
    03:00 +21°C° 0 mm 2 mps 756 mmHg 61%
    04:00 +20°C° 0 mm 2 mps 756 mmHg 64%
    05:00 +21°C° 0 mm 2 mps 756 mmHg 61%
    06:00 +23°C° 0 mm 2 mps 757 mmHg 58%
    07:00 +24°C° 0 mm 1 mps 757 mmHg 55%
    08:00 +28°C° 0 mm 2 mps 757 mmHg 46%
    09:00 +31°C° 0 mm 2 mps 757 mmHg 38%
    10:00 +35°C° 0 mm 2 mps 757 mmHg 29%
    11:00 +37°C° 0 mm 3 mps 757 mmHg 25%
    12:00 +39°C° 0 mm 3 mps 757 mmHg 21%
    13:00 +43°C° 0 mm 4 mps 756 mmHg 17%
    14:00 +42°C° 0 mm 5 mps 756 mmHg 18%
    15:00 +41°C° 0 mm 5 mps 756 mmHg 19%
    16:00 +40°C° 0 mm 6 mps 755 mmHg 21%
    17:00 +36°C° 0 mm 6 mps 756 mmHg 29%
    18:00 +32°C° 0 mm 5 mps 756 mmHg 37%
    19:00 +27°C° 0 mm 4 mps 756 mmHg 46%
    20:00 +26°C° 0 mm 4 mps 756 mmHg 50%
    21:00 +24°C° 0 mm 3 mps 757 mmHg 53%
    22:00 +22°C° 0 mm 3 mps 757 mmHg 57%
    23:00 +21°C° 0 mm 2 mps 757 mmHg 59%
    Show more